Погода в Калабасасе

США     34˚08′09″N   118˚41′04″W
темп.,
°C
ветер,
м/с
пор.,
м/с
влажн.,
%
обл.,
%
осадки,
мм/ч
давл.,
гПа
погр.,
м
16 января, сб
сб1601:00+16˚св44360 0.0 101832
04:00+15˚св44342 0.0 101730
07:00+15˚св443058 0.0 101728
10:00+24˚св5122129 0.0 1018516
13:00+26˚св1213170 0.0 1016838
16:00+24˚ссв9121914 0.0 1015418
19:00+19˚ссв45240 0.0 101677
22:00+17˚ссв45237 0.0 101760
17 января, вс
вс1701:00+16˚ссв55240 0.0 101772
04:00+15˚ссв45260 0.0 101648
07:00+15˚ссв44270 0.0 101735
10:00+22˚ссв47200 0.0 1018486
13:00+26˚св68150 0.0 1016732
16:00+24˚ссв34210 0.0 1014141
19:00+16˚с12310 0.0 101523
22:00+14˚ссв123516 0.0 101523
18 января, пн
пн1801:00+13˚св11350 0.0 101323
04:00+12˚в12347 0.0 101123
07:00+12˚вюв233722 0.0 101042
10:00+19˚в572711 0.0 1010437
13:00+23˚в582022 0.0 10081424
16:00+22˚всв5112044 0.0 10051175
19:00+16˚ссв16231766 0.1 10071321
22:00+14˚св21281778 0.1 10081007
19 января, вт
вт1901:00+12˚св19282276 0.0 1007934
04:00+11˚св20282383 0.0 10071036
07:00+10˚св1826257 0.0 10081055
10:00+12˚св18233027 0.0 10081235
13:00+14˚св18252894 0.0 10081591
16:00+13˚св20254376 0.0 10081260
19:00+12˚св17244947 0.0 1011949
22:00+11˚св15235624 0.0 1012818
20 января, ср
ср2001:00+11˚ссв1221480 0.0 1014746
04:00+11˚св1422431 0.0 1014748
07:00+11˚ссв818410 0.0 1016574
10:00+15˚св1114380 0.0 1017907
13:00+17˚св10123515 0.0 10161158
16:00+16˚св7103824 0.0 1015887
19:00+12˚с45546 0.0 1017119
22:00+10˚ссв33583 0.0 101850